UAE59 OMDB-EDDH

Flight info

Callsign UAE59
Flight time 7h 51m
Altitude 31000
Route ANVIX L223 TARDI N629 BOTAM Y855 LAKLU/N0505F320 Q204 NALKI G652 TOKRA DCT ALROK DCT BOSOB DCT ITRUX Y511 PMA Z712 WEJ/N0502F340 L677 GESON Q777 RASDA DCT OTHON DCT VAXOS DCT RDS UL609 MES DCT EVIVI L863 OKANA DCT BABIT/N0482F360 DCT ARSIN DCT DITIS DCT KILNU DCT ABGUS DCT DIRBO/N0457F230 T902 RARUP RARUP3P
Aircraft B77W/H-SDE1E2E3FGHIJ2J3J4J5M1RWXY/LB1D1

Departure

Time 2026-04-25 09:56
Airport Dubai International Airport (OMDB)

Arrival

Time 2026-04-25 17:47
Airport Hamburg Helmut Schmidt Airport (EDDH)
Time Latitude Longitude Altitude Speed Heading
2026-04-25 09:12 25.25324 55.35135 27 ft 0 kts 31°
2026-04-25 09:39 25.25320 55.35132 27 ft 2 kts 31°
2026-04-25 09:39 25.25307 55.35124 27 ft 2 kts 17°
2026-04-25 09:40 25.25277 55.35121 27 ft 2 kts 352°
2026-04-25 09:40 25.25263 55.35124 27 ft 2 kts 340°
2026-04-25 09:40 25.25249 55.35131 27 ft 2 kts 328°
2026-04-25 09:40 25.25237 55.35141 27 ft 2 kts 316°
2026-04-25 09:41 25.25227 55.35153 27 ft 2 kts 304°
2026-04-25 09:41 25.25223 55.35159 27 ft 0 kts 300°
2026-04-25 09:43 25.25224 55.35159 27 ft 0 kts 300°
2026-04-25 09:44 25.25233 55.35141 27 ft 5 kts 300°
2026-04-25 09:44 25.25262 55.35088 27 ft 9 kts 301°
2026-04-25 09:44 25.25301 55.35019 27 ft 11 kts 301°
2026-04-25 09:44 25.25345 55.34945 27 ft 12 kts 308°
2026-04-25 09:45 25.25417 55.34898 27 ft 12 kts 352°
2026-04-25 09:45 25.25502 55.34926 27 ft 13 kts 31°
2026-04-25 09:45 25.25585 55.34982 27 ft 14 kts 32°
2026-04-25 09:45 25.25702 55.35065 27 ft 15 kts 33°
2026-04-25 09:46 25.25734 55.35093 27 ft 13 kts 56°
2026-04-25 09:46 25.25738 55.35157 27 ft 8 kts 94°
2026-04-25 09:46 25.25764 55.35218 27 ft 9 kts 46°
2026-04-25 09:46 25.25828 55.35265 27 ft 13 kts 28°
2026-04-25 09:47 25.25930 55.35330 27 ft 19 kts 32°
2026-04-25 09:47 25.25999 55.35444 27 ft 17 kts 82°
2026-04-25 09:47 25.25970 55.35560 27 ft 14 kts 118°
2026-04-25 09:47 25.25920 55.35650 27 ft 13 kts 124°
2026-04-25 09:48 25.25868 55.35739 27 ft 14 kts 120°
2026-04-25 09:48 25.25808 55.35853 27 ft 20 kts 120°
2026-04-25 09:48 25.25723 55.36008 28 ft 26 kts 121°
2026-04-25 09:48 25.25619 55.36194 29 ft 28 kts 121°
2026-04-25 09:49 25.25513 55.36384 30 ft 27 kts 122°
2026-04-25 09:49 25.25417 55.36554 31 ft 25 kts 121°
2026-04-25 09:49 25.25332 55.36710 31 ft 22 kts 121°
2026-04-25 09:49 25.25251 55.36856 33 ft 22 kts 121°
2026-04-25 09:50 25.25173 55.37001 34 ft 20 kts 120°
2026-04-25 09:50 25.25106 55.37122 36 ft 15 kts 121°
2026-04-25 09:50 25.25055 55.37213 36 ft 12 kts 121°
2026-04-25 09:50 25.25013 55.37288 37 ft 10 kts 121°
2026-04-25 09:51 25.24979 55.37347 38 ft 8 kts 121°
2026-04-25 09:51 25.24953 55.37394 38 ft 6 kts 121°
2026-04-25 09:51 25.24930 55.37436 39 ft 6 kts 121°
2026-04-25 09:51 25.24901 55.37487 39 ft 9 kts 121°
2026-04-25 09:52 25.24853 55.37574 40 ft 17 kts 121°
2026-04-25 09:52 25.24776 55.37715 42 ft 23 kts 120°
2026-04-25 09:52 25.24707 55.37840 43 ft 12 kts 121°
2026-04-25 09:52 25.24677 55.37898 43 ft 4 kts 110°
2026-04-25 09:53 25.24676 55.37925 43 ft 3 kts 76°
2026-04-25 09:53 25.24684 55.37943 43 ft 2 kts 55°
2026-04-25 09:53 25.24696 55.37958 43 ft 4 kts 46°
2026-04-25 09:53 25.24737 55.37996 43 ft 10 kts 37°
2026-04-25 09:54 25.24762 55.38017 43 ft 1 kts 32°
2026-04-25 09:54 25.24795 55.38025 43 ft 8 kts 352°
2026-04-25 09:54 25.24837 55.37980 43 ft 8 kts 295°
2026-04-25 09:54 25.24854 55.37938 43 ft 0 kts 300°
2026-04-25 09:55 25.24859 55.37928 43 ft 12 kts 301°
2026-04-25 09:55 25.25028 55.37626 41 ft 79 kts 301°
2026-04-25 09:55 25.25426 55.36911 36 ft 138 kts 301°
2026-04-25 09:55 25.26019 55.35848 139 ft 176 kts 301°
2026-04-25 09:56 25.26677 55.34672 699 ft 182 kts 301°
2026-04-25 09:56 25.27310 55.33502 1490 ft 177 kts 301°
2026-04-25 09:56 25.27977 55.32318 1806 ft 191 kts 302°
2026-04-25 09:56 25.28682 55.31057 2257 ft 195 kts 299°
2026-04-25 09:57 25.29112 55.29665 2749 ft 195 kts 279°
2026-04-25 09:57 25.29093 55.28180 3192 ft 199 kts 259°
2026-04-25 09:57 25.28588 55.26755 3669 ft 202 kts 240°
2026-04-25 09:57 25.27652 55.24977 4350 ft 201 kts 244°
2026-04-25 09:58 25.27229 55.24063 4715 ft 199 kts 245°
2026-04-25 09:58 25.26642 55.22677 5112 ft 206 kts 248°
2026-04-25 09:58 25.26059 55.21247 5651 ft 203 kts 246°
2026-04-25 09:58 25.25451 55.19822 6036 ft 211 kts 246°
2026-04-25 09:59 25.24746 55.18362 6378 ft 220 kts 234°
2026-04-25 09:59 25.23621 55.17163 6699 ft 231 kts 214°
2026-04-25 09:59 25.22137 55.16448 7081 ft 241 kts 192°
2026-04-25 09:59 25.20377 55.16432 7264 ft 261 kts 165°
2026-04-25 10:00 25.18740 55.17316 7725 ft 270 kts 140°
2026-04-25 10:00 25.17532 55.18916 8133 ft 282 kts 119°
2026-04-25 10:00 25.16343 55.21563 8741 ft 294 kts 117°
2026-04-25 10:00 25.15723 55.22915 9120 ft 297 kts 118°
2026-04-25 10:01 25.14779 55.24896 9829 ft 296 kts 119°
2026-04-25 10:01 25.13809 55.26900 10450 ft 299 kts 119°
2026-04-25 10:01 25.12817 55.28947 11071 ft 302 kts 119°
2026-04-25 10:01 25.11510 55.31655 11918 ft 305 kts 119°
2026-04-25 10:02 25.10843 55.33039 12359 ft 306 kts 119°
2026-04-25 10:02 25.09903 55.35151 12987 ft 310 kts 115°
2026-04-25 10:02 25.09030 55.37337 13625 ft 313 kts 115°
2026-04-25 10:02 25.08143 55.39540 14228 ft 318 kts 116°
2026-04-25 10:03 25.07235 55.41758 14830 ft 322 kts 116°
2026-04-25 10:03 25.06332 55.44055 15245 ft 335 kts 114°
2026-04-25 10:03 25.05404 55.46497 15537 ft 352 kts 114°
2026-04-25 10:03 25.04427 55.49049 15831 ft 369 kts 114°
2026-04-25 10:04 25.03406 55.51704 16104 ft 384 kts 114°
2026-04-25 10:04 25.02343 55.54455 16428 ft 399 kts 115°
2026-04-25 10:04 25.01020 55.57200 16629 ft 415 kts 121°
2026-04-25 10:04 24.99523 55.59981 16925 ft 428 kts 121°
2026-04-25 10:05 24.97977 55.62835 17392 ft 437 kts 122°
2026-04-25 10:05 24.96432 55.65690 17986 ft 440 kts 122°
2026-04-25 10:05 24.94859 55.68597 18640 ft 443 kts 122°
2026-04-25 10:05 24.93162 55.71416 19181 ft 447 kts 127°
2026-04-25 10:06 24.91323 55.74200 19690 ft 452 kts 128°
2026-04-25 10:06 24.89445 55.77025 20252 ft 456 kts 128°
2026-04-25 10:06 24.87575 55.79837 20772 ft 460 kts 127°
2026-04-25 10:06 24.85680 55.82689 21318 ft 464 kts 127°
2026-04-25 10:07 24.83771 55.85560 21849 ft 468 kts 128°
2026-04-25 10:07 24.81824 55.88444 22316 ft 472 kts 128°
2026-04-25 10:07 24.79841 55.91365 22792 ft 476 kts 128°
2026-04-25 10:07 24.77730 55.94190 23287 ft 478 kts 135°
2026-04-25 10:08 24.75348 55.96737 23746 ft 481 kts 139°
2026-04-25 10:08 24.72917 55.99237 24180 ft 484 kts 139°
2026-04-25 10:08 24.70434 56.01786 24673 ft 487 kts 139°
2026-04-25 10:08 24.67967 56.04319 25154 ft 489 kts 139°
2026-04-25 10:09 24.65483 56.06873 25566 ft 493 kts 139°
2026-04-25 10:09 24.62968 56.09459 26042 ft 496 kts 139°
2026-04-25 10:09 24.60448 56.12050 26510 ft 499 kts 139°
2026-04-25 10:09 24.57815 56.14551 26962 ft 500 kts 145°
2026-04-25 10:10 24.54882 56.16605 27390 ft 500 kts 154°
2026-04-25 10:10 24.51696 56.18152 27793 ft 501 kts 163°
2026-04-25 10:10 24.48321 56.19153 28186 ft 502 kts 172°
2026-04-25 10:10 24.44863 56.19576 28604 ft 502 kts 181°
2026-04-25 10:11 24.41392 56.19422 29004 ft 502 kts 189°
2026-04-25 10:11 24.37932 56.18681 29395 ft 502 kts 198°
2026-04-25 10:11 24.34668 56.17376 29976 ft 498 kts 207°
2026-04-25 10:11 24.31685 56.15576 30716 ft 491 kts 216°
2026-04-25 10:12 24.28914 56.13430 31461 ft 485 kts 215°
2026-04-25 10:12 24.25984 56.11616 32137 ft 484 kts 207°
2026-04-25 10:12 24.19573 56.09318 33244 ft 483 kts 196°
2026-04-25 10:13 24.16282 56.08446 33630 ft 484 kts 196°
2026-04-25 10:13 24.12970 56.07573 33949 ft 487 kts 196°
2026-04-25 10:13 24.09624 56.06691 34299 ft 488 kts 197°
2026-04-25 10:13 24.05166 56.05518 34788 ft 489 kts 197°
2026-04-25 10:14 24.02918 56.04926 34985 ft 490 kts 197°
2026-04-25 10:14 23.96135 56.03142 34992 ft 496 kts 197°
2026-04-25 10:15 23.89344 56.01359 34986 ft 493 kts 197°
2026-04-25 10:15 23.82649 55.99603 34969 ft 496 kts 197°
2026-04-25 10:16 23.75864 55.97825 34957 ft 495 kts 197°
2026-04-25 10:16 23.69172 55.96072 34947 ft 497 kts 197°
2026-04-25 10:17 23.62416 55.94306 34945 ft 496 kts 197°
2026-04-25 10:17 23.55693 55.92550 34935 ft 496 kts 197°
2026-04-25 10:18 23.48945 55.90789 34931 ft 498 kts 197°
2026-04-25 10:18 23.42197 55.89030 34921 ft 497 kts 197°
2026-04-25 10:19 23.35456 55.87275 34914 ft 499 kts 197°
2026-04-25 10:19 23.28704 55.85518 34907 ft 500 kts 197°
2026-04-25 10:20 23.21909 55.83752 34904 ft 500 kts 197°
2026-04-25 10:20 23.15115 55.81989 34903 ft 501 kts 197°
2026-04-25 10:21 23.08305 55.80224 34893 ft 499 kts 197°
2026-04-25 10:21 23.01507 55.78463 34896 ft 501 kts 198°
2026-04-25 10:22 22.94724 55.76707 34900 ft 503 kts 198°
2026-04-25 10:22 22.87860 55.74932 34896 ft 502 kts 197°
2026-04-25 10:23 22.81042 55.73172 34891 ft 501 kts 197°
2026-04-25 10:23 22.74221 55.71412 34887 ft 503 kts 197°
2026-04-25 10:24 22.67421 55.69660 34884 ft 503 kts 197°
2026-04-25 10:24 22.60527 55.67885 34883 ft 504 kts 197°
2026-04-25 10:25 22.52585 55.65843 34882 ft 504 kts 197°
2026-04-25 10:25 22.46883 55.64379 34877 ft 503 kts 197°
2026-04-25 10:26 22.40014 55.62616 34878 ft 506 kts 197°
2026-04-25 10:26 22.33130 55.60851 34877 ft 505 kts 197°
2026-04-25 10:27 22.26617 55.58294 34875 ft 497 kts 213°
2026-04-25 10:27 22.21164 55.53851 34870 ft 487 kts 230°
2026-04-25 10:27 22.18359 55.50062 34867 ft 480 kts 242°
2026-04-25 10:28 22.17238 55.47978 34866 ft 478 kts 247°
2026-04-25 10:28 22.15102 55.41269 34859 ft 468 kts 263°
2026-04-25 10:29 22.14218 55.34314 34863 ft 468 kts 265°
2026-04-25 10:29 22.13486 55.27322 34868 ft 468 kts 266°
2026-04-25 10:30 22.12824 55.20344 34870 ft 467 kts 266°
2026-04-25 10:30 22.12199 55.13365 34884 ft 469 kts 267°
2026-04-25 10:31 22.11591 55.06390 34896 ft 467 kts 267°
2026-04-25 10:31 22.10990 54.99407 34903 ft 468 kts 267°
2026-04-25 10:32 22.10391 54.92415 34904 ft 467 kts 267°
2026-04-25 10:32 22.09798 54.85492 34897 ft 464 kts 267°
2026-04-25 10:33 22.09203 54.78560 34893 ft 465 kts 267°
2026-04-25 10:33 22.08603 54.71603 34889 ft 465 kts 267°
2026-04-25 10:34 22.08006 54.64702 34887 ft 465 kts 267°
2026-04-25 10:34 22.07405 54.57793 34889 ft 465 kts 267°
2026-04-25 10:35 22.06800 54.50861 34889 ft 466 kts 267°
2026-04-25 10:35 22.06190 54.43914 34888 ft 465 kts 267°
2026-04-25 10:36 22.05579 54.36990 34890 ft 466 kts 267°
2026-04-25 10:36 22.04963 54.30044 34898 ft 464 kts 266°
2026-04-25 10:37 22.04348 54.23130 34898 ft 463 kts 266°
2026-04-25 10:37 22.03729 54.16223 34895 ft 464 kts 267°
2026-04-25 10:38 22.03107 54.09293 34893 ft 464 kts 266°
2026-04-25 10:38 22.02483 54.02393 34895 ft 466 kts 266°
2026-04-25 10:39 22.01860 53.95522 34891 ft 462 kts 266°
2026-04-25 10:39 22.01228 53.88599 34889 ft 462 kts 266°
2026-04-25 10:40 22.00598 53.81718 34888 ft 462 kts 266°
2026-04-25 10:40 21.99965 53.74845 34887 ft 462 kts 266°
2026-04-25 10:41 21.99329 53.67964 34885 ft 462 kts 266°
2026-04-25 10:41 21.98695 53.61144 34887 ft 461 kts 266°
2026-04-25 10:42 21.98056 53.54286 34889 ft 462 kts 266°
2026-04-25 10:42 21.97409 53.47390 34885 ft 461 kts 266°
2026-04-25 10:43 21.96763 53.40532 34877 ft 461 kts 266°
2026-04-25 10:43 21.96113 53.33658 34879 ft 461 kts 266°
2026-04-25 10:44 21.95463 53.26811 34875 ft 461 kts 266°
2026-04-25 10:44 21.94812 53.19989 34876 ft 462 kts 266°
2026-04-25 10:45 21.94152 53.13103 34877 ft 462 kts 265°
2026-04-25 10:45 21.93490 53.06233 34881 ft 461 kts 266°
2026-04-25 10:46 21.92830 52.99413 34889 ft 459 kts 266°
2026-04-25 10:46 21.92165 52.92566 34893 ft 460 kts 266°
2026-04-25 10:47 21.91499 52.85734 34894 ft 459 kts 265°
2026-04-25 10:47 21.90827 52.78873 34894 ft 459 kts 266°
2026-04-25 10:48 21.90209 52.72040 34887 ft 458 kts 270°
2026-04-25 10:48 21.90909 52.65295 34898 ft 455 kts 282°
2026-04-25 10:49 21.92364 52.57523 34896 ft 456 kts 282°
2026-04-25 10:49 21.93405 52.51917 34896 ft 455 kts 282°
2026-04-25 10:50 21.94633 52.45263 34895 ft 454 kts 282°
2026-04-25 10:50 21.95858 52.38589 34895 ft 453 kts 282°
2026-04-25 10:51 21.97073 52.31945 34907 ft 455 kts 281°
2026-04-25 10:51 21.98295 52.25243 34905 ft 453 kts 281°
2026-04-25 10:52 21.99505 52.18590 34903 ft 454 kts 281°
2026-04-25 10:52 22.00718 52.11898 34901 ft 455 kts 281°
2026-04-25 10:53 22.01921 52.05246 34900 ft 452 kts 281°
2026-04-25 10:53 22.03122 51.98589 34899 ft 454 kts 281°
2026-04-25 10:54 22.04323 51.91920 34899 ft 452 kts 281°
2026-04-25 10:54 22.05712 51.84185 34893 ft 452 kts 281°
2026-04-25 10:55 22.06704 51.78643 34891 ft 451 kts 281°
2026-04-25 10:55 22.07891 51.71999 34894 ft 453 kts 281°
2026-04-25 10:56 22.09079 51.65339 34891 ft 452 kts 281°
2026-04-25 10:56 22.10266 51.58659 34891 ft 454 kts 281°
2026-04-25 10:57 22.11442 51.52031 34893 ft 451 kts 281°
2026-04-25 10:57 22.12624 51.45353 34895 ft 453 kts 281°
2026-04-25 10:58 22.13794 51.38722 34891 ft 452 kts 281°
2026-04-25 10:58 22.14967 51.32058 34903 ft 450 kts 281°
2026-04-25 10:59 22.16140 51.25381 34902 ft 452 kts 281°
2026-04-25 10:59 22.17298 51.18776 34894 ft 450 kts 281°
2026-04-25 11:00 22.18458 51.12141 34895 ft 449 kts 281°
2026-04-25 11:00 22.19615 51.05501 34893 ft 451 kts 281°
2026-04-25 11:01 22.20765 50.98892 34903 ft 451 kts 280°
2026-04-25 11:01 22.21918 50.92243 34905 ft 451 kts 280°
2026-04-25 11:02 22.23067 50.85606 34904 ft 449 kts 280°
2026-04-25 11:02 22.24210 50.78979 34907 ft 452 kts 281°
2026-04-25 11:03 22.25356 50.72327 34909 ft 449 kts 281°
2026-04-25 11:03 22.26494 50.65702 34911 ft 451 kts 281°
2026-04-25 11:04 22.27813 50.57998 34909 ft 450 kts 280°
2026-04-25 11:04 22.28757 50.52472 34912 ft 451 kts 280°
2026-04-25 11:05 22.29887 50.45843 34912 ft 448 kts 280°
2026-04-25 11:05 22.31011 50.39232 34911 ft 450 kts 281°
2026-04-25 11:06 22.32141 50.32567 34929 ft 449 kts 280°
2026-04-25 11:06 22.33256 50.25976 34924 ft 447 kts 280°
2026-04-25 11:07 22.34372 50.19363 34930 ft 450 kts 280°
2026-04-25 11:07 22.35483 50.12760 34930 ft 447 kts 280°
2026-04-25 11:08 22.36601 50.06101 34928 ft 450 kts 280°
2026-04-25 11:08 22.37705 49.99502 34926 ft 447 kts 280°
2026-04-25 11:09 22.38820 49.92824 34919 ft 450 kts 280°
2026-04-25 11:09 22.39926 49.86183 34925 ft 450 kts 280°
2026-04-25 11:10 22.41027 49.79559 34924 ft 448 kts 280°
2026-04-25 11:10 22.42121 49.72955 34921 ft 447 kts 280°
2026-04-25 11:11 22.43209 49.66373 34919 ft 448 kts 280°
2026-04-25 11:11 22.44295 49.59784 34916 ft 445 kts 280°
2026-04-25 11:12 22.45380 49.53180 34917 ft 445 kts 280°
2026-04-25 11:12 22.46641 49.45490 34917 ft 445 kts 280°
2026-04-25 11:13 22.47538 49.40002 34918 ft 445 kts 280°
2026-04-25 11:13 22.48794 49.32295 34935 ft 443 kts 280°
2026-04-25 11:14 22.49682 49.26836 34930 ft 445 kts 280°
2026-04-25 11:14 22.50748 49.20267 34936 ft 441 kts 279°
2026-04-25 11:15 22.51809 49.13705 34930 ft 444 kts 280°
2026-04-25 11:15 22.52866 49.07155 34928 ft 441 kts 280°
2026-04-25 11:16 22.54434 48.97407 34925 ft 442 kts 280°
2026-04-25 11:16 22.55482 48.90870 34924 ft 439 kts 280°
2026-04-25 11:17 22.56526 48.84339 34929 ft 441 kts 280°
2026-04-25 11:17 22.57741 48.76714 34923 ft 441 kts 280°
2026-04-25 11:18 22.58607 48.71272 34929 ft 441 kts 279°
2026-04-25 11:18 22.59640 48.64755 34938 ft 439 kts 280°
2026-04-25 11:19 22.60663 48.58289 34947 ft 436 kts 280°
2026-04-25 11:19 22.61853 48.50740 34948 ft 438 kts 280°
2026-04-25 11:20 22.62707 48.45311 34945 ft 438 kts 280°
2026-04-25 11:20 22.63897 48.37723 34943 ft 439 kts 280°
2026-04-25 11:21 22.64743 48.32313 34959 ft 435 kts 280°
2026-04-25 11:21 22.65918 48.24784 34960 ft 436 kts 279°
2026-04-25 11:22 22.66757 48.19389 34959 ft 436 kts 280°
2026-04-25 11:22 22.67757 48.12946 34958 ft 436 kts 280°
2026-04-25 11:23 22.68762 48.06455 34951 ft 435 kts 279°
2026-04-25 11:23 22.69497 47.99926 34953 ft 436 kts 276°
2026-04-25 11:24 22.70045 47.93420 34962 ft 434 kts 276°
2026-04-25 11:24 22.70591 47.86895 34964 ft 434 kts 276°
2026-04-25 11:25 22.71130 47.80426 34970 ft 433 kts 276°
2026-04-25 11:25 22.71759 47.72832 34972 ft 434 kts 276°
2026-04-25 11:26 22.72207 47.67402 34977 ft 432 kts 276°
2026-04-25 11:26 22.72736 47.60950 34985 ft 432 kts 276°
2026-04-25 11:27 22.73265 47.54485 34989 ft 432 kts 276°
2026-04-25 11:27 22.73704 47.49080 34993 ft 431 kts 276°
2026-04-25 11:28 22.74315 47.41536 35001 ft 433 kts 276°
2026-04-25 11:28 22.74836 47.35054 35006 ft 432 kts 276°
2026-04-25 11:29 22.75355 47.28570 35029 ft 431 kts 275°
2026-04-25 11:29 22.75870 47.22102 35031 ft 431 kts 276°
2026-04-25 11:30 22.76381 47.15670 35040 ft 429 kts 276°
2026-04-25 11:30 22.76895 47.09216 35044 ft 429 kts 276°
2026-04-25 11:31 22.77403 47.02808 35047 ft 428 kts 276°
2026-04-25 11:31 22.77912 46.96349 35050 ft 428 kts 276°
2026-04-25 11:32 22.78414 46.89942 35047 ft 429 kts 275°
2026-04-25 11:32 22.79001 46.82415 35043 ft 428 kts 276°
2026-04-25 11:33 22.79413 46.77100 35047 ft 427 kts 276°
2026-04-25 11:33 22.79991 46.69606 35048 ft 427 kts 275°
2026-04-25 11:34 22.80400 46.64277 35056 ft 428 kts 276°
2026-04-25 11:34 22.80891 46.57850 35063 ft 427 kts 276°
2026-04-25 11:35 22.81375 46.51480 35070 ft 426 kts 276°
2026-04-25 11:35 22.81860 46.45056 35080 ft 428 kts 276°
2026-04-25 11:36 22.82339 46.38684 35082 ft 426 kts 275°
2026-04-25 11:36 22.82894 46.31210 35099 ft 425 kts 276°
2026-04-25 11:37 22.83287 46.25887 35102 ft 426 kts 275°
2026-04-25 11:37 22.83836 46.18422 35089 ft 426 kts 276°
2026-04-25 11:38 22.84224 46.13116 35075 ft 424 kts 275°
2026-04-25 11:38 22.84691 46.06683 35056 ft 426 kts 276°
2026-04-25 11:39 22.85153 46.00293 35041 ft 426 kts 275°
2026-04-25 11:39 22.85690 45.92827 35030 ft 425 kts 275°
2026-04-25 11:40 22.86072 45.87484 35031 ft 424 kts 275°
2026-04-25 11:40 22.86525 45.81106 35033 ft 427 kts 275°
2026-04-25 11:41 22.86976 45.74733 35028 ft 425 kts 275°
2026-04-25 11:41 22.87424 45.68352 35026 ft 424 kts 276°
2026-04-25 11:42 22.87944 45.60907 35033 ft 425 kts 276°
2026-04-25 11:42 22.88316 45.55550 35037 ft 425 kts 276°
2026-04-25 11:43 22.88756 45.49175 35033 ft 425 kts 276°
2026-04-25 11:43 22.89268 45.41718 35024 ft 424 kts 276°
2026-04-25 11:44 22.89629 45.36437 35022 ft 424 kts 276°
2026-04-25 11:44 22.90064 45.30029 35043 ft 426 kts 275°
2026-04-25 11:45 22.90567 45.22558 35042 ft 424 kts 275°
2026-04-25 11:45 22.90995 45.16170 35043 ft 424 kts 275°
2026-04-25 11:46 22.91419 45.09800 35042 ft 424 kts 275°
2026-04-25 11:46 22.91841 45.03424 35041 ft 424 kts 275°
2026-04-25 11:47 22.92191 44.98097 35042 ft 424 kts 275°
2026-04-25 11:47 22.92608 44.91714 35041 ft 424 kts 275°
2026-04-25 11:48 22.93024 44.85298 35038 ft 425 kts 275°
2026-04-25 11:48 22.93435 44.78939 35040 ft 424 kts 275°
2026-04-25 11:49 22.93846 44.72526 35039 ft 422 kts 275°
2026-04-25 11:49 22.94801 44.65150 35038 ft 423 kts 286°
2026-04-25 11:50 22.96642 44.59123 35031 ft 423 kts 288°
2026-04-25 11:50 22.98204 44.54075 35027 ft 422 kts 287°
2026-04-25 11:51 23.00059 44.48068 35022 ft 423 kts 288°
2026-04-25 11:51 23.02234 44.41007 35029 ft 422 kts 287°
2026-04-25 11:52 23.03791 44.35943 35031 ft 421 kts 288°
2026-04-25 11:52 23.05646 44.29902 35055 ft 421 kts 287°
2026-04-25 11:53 23.07492 44.23883 35055 ft 422 kts 287°
2026-04-25 11:53 23.09655 44.16815 35053 ft 422 kts 287°
2026-04-25 11:54 23.11194 44.11778 35055 ft 422 kts 287°
2026-04-25 11:55 23.14272 44.01687 35054 ft 423 kts 287°
2026-04-25 11:55 23.16115 43.95632 35047 ft 423 kts 287°
2026-04-25 11:56 23.17960 43.89564 35048 ft 422 kts 287°
2026-04-25 11:56 23.19479 43.84559 35049 ft 420 kts 287°
2026-04-25 11:57 23.21310 43.78516 35055 ft 421 kts 287°
2026-04-25 11:57 23.23148 43.72443 35056 ft 423 kts 287°
2026-04-25 11:58 23.24978 43.66388 35054 ft 420 kts 287°
2026-04-25 11:58 23.27110 43.59320 35055 ft 421 kts 287°
2026-04-25 11:59 23.28612 43.54330 35050 ft 420 kts 287°
2026-04-25 11:59 23.30437 43.48266 35047 ft 420 kts 287°
2026-04-25 12:00 23.33126 43.39308 35049 ft 418 kts 287°
2026-04-25 12:01 23.35829 43.30285 35068 ft 416 kts 286°
2026-04-25 12:01 23.37923 43.23279 35072 ft 416 kts 286°
2026-04-25 12:02 23.40311 43.15279 35066 ft 417 kts 286°
2026-04-25 12:02 23.42095 43.09278 35063 ft 417 kts 286°
2026-04-25 12:03 23.43875 43.03275 35062 ft 414 kts 287°
2026-04-25 12:03 23.45649 42.97286 35062 ft 415 kts 286°
2026-04-25 12:04 23.47423 42.91288 35056 ft 415 kts 286°
2026-04-25 12:04 23.49489 42.84289 35056 ft 415 kts 286°
2026-04-25 12:05 23.50959 42.79303 35048 ft 416 kts 286°
2026-04-25 12:05 23.53030 42.72271 35051 ft 415 kts 285°
2026-04-25 12:06 23.54792 42.66287 35045 ft 416 kts 286°
2026-04-25 12:06 23.56556 42.60292 35044 ft 414 kts 286°
2026-04-25 12:07 23.58323 42.54273 35038 ft 415 kts 285°
2026-04-25 12:07 23.59795 42.49253 35035 ft 415 kts 286°
2026-04-25 12:08 23.61541 42.43291 35031 ft 413 kts 285°
2026-04-25 12:08 23.63596 42.36257 35032 ft 414 kts 286°
2026-04-25 12:09 23.65052 42.31268 35051 ft 414 kts 285°
2026-04-25 12:09 23.67087 42.24271 35053 ft 415 kts 285°
2026-04-25 12:10 23.68813 42.18316 35042 ft 414 kts 285°
2026-04-25 12:10 23.70255 42.13334 35035 ft 414 kts 285°
2026-04-25 12:11 23.71983 42.07352 35040 ft 416 kts 285°
2026-04-25 12:11 23.74010 42.00328 35036 ft 416 kts 285°
2026-04-25 12:12 23.75458 41.95313 35030 ft 417 kts 285°
2026-04-25 12:12 23.77485 41.88302 35022 ft 416 kts 285°
2026-04-25 12:13 23.78940 41.83258 35021 ft 414 kts 285°
2026-04-25 12:13 23.80953 41.76267 35026 ft 416 kts 286°
2026-04-25 12:14 23.82390 41.71266 35024 ft 414 kts 285°
2026-04-25 12:14 23.84121 41.65229 35014 ft 417 kts 285°
2026-04-25 12:15 23.86152 41.58134 35008 ft 415 kts 285°
2026-04-25 12:15 23.87591 41.53088 35002 ft 420 kts 285°
2026-04-25 12:16 23.89604 41.45999 35001 ft 418 kts 285°
2026-04-25 12:16 23.91331 41.39909 34993 ft 419 kts 284°
2026-04-25 12:17 23.93052 41.33831 35006 ft 418 kts 285°
2026-04-25 12:17 23.94481 41.28793 35003 ft 417 kts 285°
2026-04-25 12:18 23.96486 41.21717 35006 ft 419 kts 285°
2026-04-25 12:18 23.98211 41.15615 35008 ft 419 kts 285°
2026-04-25 12:19 24.00796 41.06453 35014 ft 420 kts 284°
2026-04-25 12:20 24.02225 41.01377 35010 ft 419 kts 284°
2026-04-25 12:20 24.04219 40.94282 35013 ft 422 kts 284°
2026-04-25 12:21 24.05941 40.88144 35012 ft 420 kts 285°
2026-04-25 12:21 24.07651 40.82041 35007 ft 419 kts 284°
2026-04-25 12:22 24.09371 40.75892 35009 ft 421 kts 284°
2026-04-25 12:22 24.11077 40.69781 35003 ft 420 kts 284°
2026-04-25 12:23 24.12786 40.63651 35006 ft 421 kts 284°
2026-04-25 12:23 24.14208 40.58539 35005 ft 421 kts 284°
2026-04-25 12:24 24.15941 40.52383 34988 ft 423 kts 287°
2026-04-25 12:24 24.18985 40.45593 34993 ft 427 kts 294°
2026-04-25 12:25 24.21777 40.39785 34994 ft 429 kts 294°
2026-04-25 12:25 24.24077 40.34993 34989 ft 427 kts 293°
2026-04-25 12:26 24.26844 40.29216 35003 ft 426 kts 293°
2026-04-25 12:26 24.30077 40.22454 34991 ft 429 kts 293°
2026-04-25 12:27 24.32827 40.16696 34992 ft 427 kts 293°
2026-04-25 12:27 24.35118 40.11891 34995 ft 428 kts 293°
2026-04-25 12:28 24.37873 40.06108 34998 ft 428 kts 292°
2026-04-25 12:28 24.41080 39.99369 34993 ft 426 kts 292°
2026-04-25 12:29 24.43819 39.93601 34985 ft 427 kts 293°
2026-04-25 12:29 24.46557 39.87833 34975 ft 425 kts 292°
2026-04-25 12:30 24.49295 39.82054 34964 ft 426 kts 292°
2026-04-25 12:30 24.52021 39.76294 34954 ft 426 kts 293°
2026-04-25 12:31 24.55160 39.70799 34953 ft 433 kts 304°
2026-04-25 12:31 24.59825 39.66449 34977 ft 446 kts 316°
2026-04-25 12:32 24.64904 39.62408 34983 ft 448 kts 316°
2026-04-25 12:32 24.69930 39.58405 35005 ft 444 kts 316°
2026-04-25 12:33 24.74904 39.54432 35026 ft 443 kts 316°
2026-04-25 12:33 24.79078 39.51093 35027 ft 444 kts 316°
2026-04-25 12:34 24.84961 39.46380 35016 ft 446 kts 315°
2026-04-25 12:34 24.89960 39.42375 34992 ft 442 kts 315°
2026-04-25 12:35 24.94939 39.38378 34963 ft 440 kts 315°
2026-04-25 12:35 24.99906 39.34386 34952 ft 441 kts 315°
2026-04-25 12:36 25.04857 39.30405 34957 ft 436 kts 315°
2026-04-25 12:36 25.09785 39.26434 34967 ft 439 kts 315°
2026-04-25 12:37 25.13896 39.23122 34979 ft 437 kts 314°
2026-04-25 12:37 25.19594 39.18518 34985 ft 434 kts 314°
2026-04-25 12:38 25.23683 39.13825 34985 ft 420 kts 297°
2026-04-25 12:38 25.26864 39.08471 34989 ft 415 kts 297°
2026-04-25 12:39 25.30005 39.03111 34985 ft 415 kts 296°
2026-04-25 12:39 25.33121 38.97787 34971 ft 411 kts 296°
2026-04-25 12:40 25.35700 38.93370 34963 ft 415 kts 296°
2026-04-25 12:40 25.39332 38.87149 34945 ft 411 kts 296°
2026-04-25 12:41 25.41907 38.82729 34936 ft 415 kts 296°
2026-04-25 12:41 25.45550 38.76475 34915 ft 410 kts 296°
2026-04-25 12:42 25.48634 38.71169 34908 ft 412 kts 296°
2026-04-25 12:42 25.51210 38.66734 34901 ft 414 kts 296°
2026-04-25 12:43 25.54823 38.60507 34905 ft 412 kts 296°
2026-04-25 12:43 25.58930 38.53420 34910 ft 409 kts 296°
2026-04-25 12:44 25.61999 38.48115 34917 ft 411 kts 295°
2026-04-25 12:45 25.67129 38.39238 34919 ft 408 kts 296°
2026-04-25 12:45 25.71713 38.31288 34932 ft 409 kts 295°
2026-04-25 12:46 25.74269 38.26849 34919 ft 408 kts 295°
2026-04-25 12:46 25.77335 38.21520 34911 ft 409 kts 296°
2026-04-25 12:47 25.80902 38.15311 34929 ft 410 kts 295°
2026-04-25 12:47 25.83454 38.10866 34938 ft 407 kts 295°
2026-04-25 12:48 25.86981 38.04713 34941 ft 409 kts 295°
2026-04-25 12:48 25.90028 37.99394 34944 ft 405 kts 295°
2026-04-25 12:49 25.93054 37.94099 34958 ft 410 kts 295°
2026-04-25 12:49 25.96113 37.88747 34968 ft 405 kts 295°
2026-04-25 12:50 25.98628 37.84338 34982 ft 405 kts 295°
2026-04-25 12:50 26.00225 37.80625 34986 ft 396 kts 283°
2026-04-25 12:50 26.00889 37.77673 34996 ft 393 kts 277°
2026-04-25 12:51 26.01739 37.71720 34995 ft 391 kts 277°
2026-04-25 12:51 26.02565 37.65733 34978 ft 392 kts 276°
2026-04-25 12:52 26.03383 37.59734 34961 ft 391 kts 276°
2026-04-25 12:52 26.04061 37.54727 34946 ft 392 kts 276°
2026-04-25 12:53 26.05004 37.47731 34932 ft 390 kts 276°
2026-04-25 12:53 26.05803 37.41777 34916 ft 390 kts 276°
2026-04-25 12:54 26.06600 37.35807 34895 ft 392 kts 276°
2026-04-25 12:54 26.07399 37.29809 34907 ft 391 kts 276°
2026-04-25 12:55 26.07932 37.25798 34898 ft 391 kts 275°
2026-04-25 12:55 26.08986 37.17838 34881 ft 391 kts 276°
2026-04-25 12:56 26.09774 37.11867 34876 ft 389 kts 276°
2026-04-25 12:56 26.10563 37.05859 34860 ft 391 kts 276°
2026-04-25 12:57 26.11347 36.99877 34863 ft 390 kts 276°
2026-04-25 12:57 26.12130 36.93884 34859 ft 390 kts 275°
2026-04-25 12:58 26.12779 36.88902 34861 ft 390 kts 275°
2026-04-25 12:58 26.13692 36.81864 34853 ft 390 kts 275°
2026-04-25 12:59 26.14467 36.75863 34852 ft 391 kts 275°
2026-04-25 12:59 26.15240 36.69869 34844 ft 390 kts 276°
2026-04-25 13:00 26.15749 36.65908 34847 ft 391 kts 276°
2026-04-25 13:00 26.16778 36.57875 34839 ft 390 kts 276°
2026-04-25 13:01 26.17665 36.51914 34832 ft 396 kts 282°
2026-04-25 13:01 26.20153 36.46352 34823 ft 411 kts 300°
2026-04-25 13:02 26.22080 36.43942 34838 ft 423 kts 304°
2026-04-25 13:02 26.24161 36.41565 34832 ft 423 kts 305°
2026-04-25 13:02 26.28249 36.36898 34832 ft 423 kts 304°
2026-04-25 13:03 26.32369 36.32172 34856 ft 420 kts 304°
2026-04-25 13:03 26.36463 36.27455 34856 ft 421 kts 304°
2026-04-25 13:04 26.40550 36.22738 34853 ft 419 kts 304°
2026-04-25 13:04 26.44593 36.18063 34852 ft 421 kts 304°
2026-04-25 13:05 26.48669 36.13344 34852 ft 421 kts 304°
2026-04-25 13:05 26.52754 36.08610 34848 ft 419 kts 304°
2026-04-25 13:06 26.56805 36.03908 34845 ft 420 kts 304°
2026-04-25 13:06 26.60872 35.99184 34839 ft 420 kts 304°
2026-04-25 13:07 26.64953 35.94435 34851 ft 425 kts 304°
2026-04-25 13:07 26.66336 35.92822 34972 ft 429 kts 304°
2026-04-25 13:07 26.69079 35.89632 35718 ft 425 kts 304°
2026-04-25 13:08 26.71127 35.87246 35823 ft 425 kts 304°
2026-04-25 13:08 26.73171 35.84864 35828 ft 421 kts 304°
2026-04-25 13:08 26.77211 35.80152 35828 ft 418 kts 304°
2026-04-25 13:09 26.81282 35.75396 35834 ft 420 kts 304°
2026-04-25 13:09 26.84698 35.71398 35839 ft 422 kts 304°
2026-04-25 13:10 26.88716 35.66699 35838 ft 417 kts 304°
2026-04-25 13:10 26.93459 35.61140 35837 ft 419 kts 304°
2026-04-25 13:11 26.97496 35.56404 35837 ft 419 kts 304°
2026-04-25 13:11 27.00888 35.52420 35837 ft 421 kts 304°
2026-04-25 13:12 27.05615 35.46862 35835 ft 421 kts 304°
2026-04-25 13:12 27.08306 35.43697 35834 ft 419 kts 304°
2026-04-25 13:13 27.13681 35.37362 35835 ft 422 kts 304°
2026-04-25 13:13 27.17742 35.32573 35857 ft 420 kts 304°
2026-04-25 13:14 27.21792 35.27787 35859 ft 423 kts 304°
2026-04-25 13:14 27.25804 35.23047 35855 ft 418 kts 304°
2026-04-25 13:15 27.29846 35.18259 35856 ft 422 kts 304°
2026-04-25 13:15 27.33871 35.13491 35857 ft 420 kts 304°
2026-04-25 13:16 27.37906 35.08703 35854 ft 422 kts 304°
2026-04-25 13:16 27.41931 35.03923 35856 ft 422 kts 304°
2026-04-25 13:17 27.45965 34.99124 35847 ft 422 kts 304°
2026-04-25 13:17 27.49350 34.95097 35848 ft 421 kts 304°
2026-04-25 13:18 27.54188 34.89617 35852 ft 426 kts 307°
2026-04-25 13:18 27.58587 34.85028 35843 ft 428 kts 307°
2026-04-25 13:19 27.62964 34.80432 35836 ft 427 kts 307°
2026-04-25 13:19 27.65846 34.77395 35836 ft 425 kts 307°
2026-04-25 13:20 27.71630 34.71279 35829 ft 427 kts 308°
2026-04-25 13:20 27.75980 34.66669 35817 ft 427 kts 307°
2026-04-25 13:21 27.80318 34.62064 35822 ft 427 kts 307°
2026-04-25 13:21 27.84635 34.57476 35826 ft 426 kts 307°
2026-04-25 13:22 27.88972 34.52859 35829 ft 427 kts 307°
2026-04-25 13:23 27.95474 34.45931 35839 ft 425 kts 307°
2026-04-25 13:23 27.99759 34.41307 35846 ft 423 kts 303°
2026-04-25 13:24 28.03497 34.36241 35853 ft 417 kts 301°
2026-04-25 13:24 28.07177 34.31146 35898 ft 419 kts 301°
2026-04-25 13:25 28.10860 34.26045 35910 ft 418 kts 300°
2026-04-25 13:25 28.14560 34.20913 35928 ft 418 kts 300°
2026-04-25 13:26 28.18229 34.15820 35978 ft 422 kts 301°
2026-04-25 13:26 28.21940 34.10664 36019 ft 420 kts 301°
2026-04-25 13:27 28.25622 34.05544 36071 ft 419 kts 300°
2026-04-25 13:27 28.29292 34.00430 36092 ft 419 kts 301°
2026-04-25 13:28 28.32961 33.95314 36073 ft 419 kts 300°
2026-04-25 13:28 28.36651 33.90160 36050 ft 422 kts 301°
2026-04-25 13:29 28.40362 33.84973 36017 ft 422 kts 301°
2026-04-25 13:29 28.44062 33.79796 36002 ft 420 kts 301°
2026-04-25 13:30 28.49627 33.71994 35958 ft 421 kts 301°
2026-04-25 13:31 28.55231 33.64125 35961 ft 425 kts 301°
2026-04-25 13:31 28.58330 33.59783 35947 ft 424 kts 301°
2026-04-25 13:32 28.62664 33.53698 35927 ft 427 kts 301°
2026-04-25 13:32 28.66401 33.48435 35911 ft 424 kts 301°
2026-04-25 13:33 28.70123 33.43180 35904 ft 427 kts 301°
2026-04-25 13:33 28.73850 33.37916 35894 ft 427 kts 301°
2026-04-25 13:34 28.77612 33.32594 35905 ft 427 kts 301°
2026-04-25 13:34 28.81307 33.27360 35883 ft 427 kts 301°
2026-04-25 13:35 28.85051 33.22050 35861 ft 426 kts 301°
2026-04-25 13:35 28.88766 33.16774 35859 ft 427 kts 301°
2026-04-25 13:36 28.92485 33.11485 35854 ft 429 kts 301°
2026-04-25 13:36 28.96211 33.06181 35845 ft 428 kts 301°
2026-04-25 13:37 28.99938 33.00867 35833 ft 433 kts 301°
2026-04-25 13:37 29.03709 32.95486 35840 ft 432 kts 301°
2026-04-25 13:38 29.06814 32.91051 35843 ft 430 kts 301°
2026-04-25 13:38 29.11190 32.84790 35857 ft 429 kts 301°
2026-04-25 13:39 29.14932 32.79428 35849 ft 430 kts 301°
2026-04-25 13:39 29.18516 32.74284 35843 ft 429 kts 301°
2026-04-25 13:40 29.22224 32.68958 35850 ft 432 kts 301°
2026-04-25 13:40 29.25971 32.63567 35852 ft 431 kts 301°
2026-04-25 13:41 29.29677 32.58222 35847 ft 431 kts 301°
2026-04-25 13:41 29.33383 32.52824 35861 ft 431 kts 301°
2026-04-25 13:42 29.37098 32.47408 35850 ft 433 kts 301°
2026-04-25 13:42 29.40827 32.41967 35877 ft 430 kts 301°
2026-04-25 13:43 29.44528 32.36559 35913 ft 431 kts 301°
2026-04-25 13:43 29.48244 32.31122 35956 ft 433 kts 300°
2026-04-25 13:44 29.51907 32.25754 35970 ft 434 kts 301°
2026-04-25 13:44 29.55626 32.20300 35966 ft 436 kts 300°
2026-04-25 13:45 29.59340 32.14846 35950 ft 432 kts 301°
2026-04-25 13:45 29.63059 32.09373 35922 ft 437 kts 301°
2026-04-25 13:46 29.66778 32.03899 35933 ft 433 kts 301°
2026-04-25 13:46 29.70483 31.98435 35918 ft 434 kts 301°
2026-04-25 13:47 29.74194 31.92953 35908 ft 434 kts 301°
2026-04-25 13:47 29.77895 31.87482 35908 ft 435 kts 301°
2026-04-25 13:48 29.81511 31.81932 35903 ft 436 kts 300°
2026-04-25 13:48 29.85107 31.76307 35903 ft 436 kts 300°
2026-04-25 13:49 29.88897 31.70835 35897 ft 444 kts 308°
2026-04-25 13:49 29.91268 31.68556 35895 ft 455 kts 317°
2026-04-25 13:49 29.94054 31.66675 35893 ft 467 kts 326°
2026-04-25 13:49 29.97114 31.65334 35880 ft 481 kts 335°
2026-04-25 13:50 30.00454 31.64541 35785 ft 492 kts 342°
2026-04-25 13:50 30.07274 31.63380 35883 ft 491 kts 342°
2026-04-25 13:51 30.14036 31.62213 35852 ft 494 kts 342°
2026-04-25 13:51 30.20876 31.61010 35861 ft 494 kts 342°
2026-04-25 13:52 30.26521 31.60008 35832 ft 491 kts 342°
2026-04-25 13:52 30.34411 31.58596 35832 ft 492 kts 342°
2026-04-25 13:53 30.41189 31.57378 35825 ft 491 kts 342°
2026-04-25 13:53 30.47933 31.56161 35829 ft 491 kts 343°
2026-04-25 13:54 30.54705 31.54937 35833 ft 493 kts 342°
2026-04-25 13:54 30.61481 31.53712 35845 ft 489 kts 343°
2026-04-25 13:55 30.68208 31.52491 35844 ft 491 kts 343°
2026-04-25 13:55 30.75015 31.51254 35817 ft 492 kts 343°
2026-04-25 13:56 30.81759 31.50026 35809 ft 493 kts 343°
2026-04-25 13:56 30.88545 31.48786 35809 ft 491 kts 343°
2026-04-25 13:57 30.95324 31.47547 35810 ft 491 kts 343°
2026-04-25 13:57 31.02097 31.46306 35817 ft 492 kts 343°
2026-04-25 13:58 31.08889 31.45061 35819 ft 493 kts 343°
2026-04-25 13:58 31.15688 31.43811 35805 ft 493 kts 343°
2026-04-25 13:59 31.22454 31.42568 35800 ft 493 kts 343°
2026-04-25 13:59 31.29222 31.41318 35807 ft 492 kts 343°
2026-04-25 14:00 31.33746 31.40480 35812 ft 494 kts 343°
2026-04-25 14:00 31.42826 31.38796 35821 ft 494 kts 343°
2026-04-25 14:01 31.49638 31.37530 35823 ft 494 kts 343°
2026-04-25 14:01 31.56438 31.36268 35824 ft 495 kts 345°
2026-04-25 14:02 31.63324 31.35524 35829 ft 498 kts 348°
2026-04-25 14:02 31.70265 31.34854 35840 ft 499 kts 348°
2026-04-25 14:03 31.77155 31.34167 35854 ft 498 kts 348°
2026-04-25 14:03 31.84080 31.33462 35860 ft 498 kts 348°
2026-04-25 14:04 31.90998 31.32746 35858 ft 498 kts 348°
2026-04-25 14:04 31.97905 31.32018 35862 ft 500 kts 348°
2026-04-25 14:05 32.04824 31.31288 35856 ft 499 kts 348°
2026-04-25 14:05 32.11763 31.30549 35860 ft 498 kts 348°
2026-04-25 14:06 32.18716 31.29806 35859 ft 498 kts 348°
2026-04-25 14:06 32.25604 31.29064 35860 ft 500 kts 348°
2026-04-25 14:07 32.32541 31.28317 35865 ft 501 kts 348°
2026-04-25 14:07 32.39463 31.27571 35867 ft 499 kts 348°
2026-04-25 14:08 32.46436 31.26817 35870 ft 499 kts 348°
2026-04-25 14:08 32.53371 31.26064 35866 ft 501 kts 348°
2026-04-25 14:09 32.60000 31.24171 35864 ft 486 kts 332°
2026-04-25 14:09 32.66079 31.20768 35867 ft 483 kts 327°
2026-04-25 14:10 32.72092 31.17260 35871 ft 481 kts 328°
2026-04-25 14:10 32.78114 31.13739 35870 ft 482 kts 328°
2026-04-25 14:11 32.84101 31.10233 35871 ft 482 kts 328°
2026-04-25 14:11 32.90120 31.06702 35868 ft 483 kts 328°
2026-04-25 14:12 32.96145 31.03160 35872 ft 484 kts 328°
2026-04-25 14:12 33.02213 30.99590 35872 ft 485 kts 328°
2026-04-25 14:13 33.08225 30.96047 35870 ft 484 kts 328°
2026-04-25 14:13 33.14194 30.92248 35854 ft 481 kts 324°
2026-04-25 14:14 33.19975 30.88209 35866 ft 481 kts 324°
2026-04-25 14:14 33.25800 30.84155 35872 ft 483 kts 324°
2026-04-25 14:15 33.31570 30.80150 35875 ft 483 kts 324°
2026-04-25 14:15 33.37413 30.76097 35871 ft 482 kts 324°
2026-04-25 14:16 33.43183 30.72092 35874 ft 483 kts 324°
2026-04-25 14:16 33.48996 30.68055 35876 ft 482 kts 324°
2026-04-25 14:17 33.54818 30.64006 35875 ft 482 kts 324°
2026-04-25 14:17 33.60592 30.59983 35878 ft 483 kts 324°
2026-04-25 14:18 33.66389 30.55940 35879 ft 482 kts 325°
2026-04-25 14:18 33.72226 30.51863 35887 ft 483 kts 324°
2026-04-25 14:19 33.78016 30.47812 35880 ft 483 kts 324°
2026-04-25 14:19 33.83839 30.43732 35880 ft 484 kts 324°
2026-04-25 14:20 33.89626 30.39670 35879 ft 484 kts 325°
2026-04-25 14:20 33.95435 30.35586 35884 ft 485 kts 325°
2026-04-25 14:21 34.01276 30.31474 35900 ft 484 kts 324°
2026-04-25 14:21 34.06107 30.28066 35896 ft 485 kts 324°
2026-04-25 14:22 34.12908 30.23264 35891 ft 484 kts 324°
2026-04-25 14:22 34.18695 30.19170 35894 ft 483 kts 324°
2026-04-25 14:23 34.24523 30.15039 35894 ft 485 kts 324°
2026-04-25 14:23 34.30357 30.10898 35891 ft 485 kts 324°
2026-04-25 14:24 34.35184 30.07467 35889 ft 485 kts 324°
2026-04-25 14:24 34.41986 30.02624 35901 ft 486 kts 324°
2026-04-25 14:25 34.47340 29.97855 35903 ft 477 kts 311°
2026-04-25 14:25 34.52025 29.92158 35897 ft 477 kts 310°
2026-04-25 14:26 34.56674 29.86436 35903 ft 478 kts 310°
2026-04-25 14:26 34.61351 29.80667 35904 ft 479 kts 310°
2026-04-25 14:27 34.65995 29.74927 35907 ft 479 kts 310°
2026-04-25 14:27 34.70668 29.69140 35901 ft 479 kts 310°
2026-04-25 14:28 34.75329 29.63355 35902 ft 480 kts 310°
2026-04-25 14:28 34.79998 29.57552 35910 ft 481 kts 310°
2026-04-25 14:29 34.84639 29.51773 35908 ft 480 kts 310°
2026-04-25 14:29 34.89309 29.45947 35911 ft 482 kts 310°
2026-04-25 14:30 34.93996 29.40091 35910 ft 482 kts 310°
2026-04-25 14:30 35.01267 29.31640 35921 ft 488 kts 319°
2026-04-25 14:31 35.06692 29.26690 35914 ft 489 kts 319°
2026-04-25 14:31 35.12150 29.21718 35913 ft 489 kts 319°
2026-04-25 14:32 35.17592 29.16748 35924 ft 489 kts 319°
2026-04-25 14:32 35.23053 29.11748 35913 ft 490 kts 319°
2026-04-25 14:33 35.28480 29.06769 35916 ft 490 kts 319°
2026-04-25 14:33 35.33939 29.01752 35919 ft 490 kts 320°
2026-04-25 14:34 35.39376 28.96746 35923 ft 491 kts 320°
2026-04-25 14:34 35.44849 28.91698 35914 ft 492 kts 320°
2026-04-25 14:35 35.50320 28.86642 35915 ft 493 kts 320°
2026-04-25 14:35 35.55779 28.81590 35917 ft 493 kts 320°
2026-04-25 14:36 35.61257 28.76511 35922 ft 494 kts 320°
2026-04-25 14:36 35.66708 28.71447 35909 ft 494 kts 320°
2026-04-25 14:37 35.72183 28.66353 35911 ft 494 kts 320°
2026-04-25 14:37 35.77647 28.61258 35903 ft 495 kts 320°
2026-04-25 14:38 35.83151 28.56119 35908 ft 494 kts 320°
2026-04-25 14:38 35.88598 28.51024 35912 ft 496 kts 320°
2026-04-25 14:39 35.94096 28.45871 35901 ft 496 kts 320°
2026-04-25 14:39 35.99585 28.40717 35910 ft 497 kts 320°
2026-04-25 14:40 36.05056 28.35572 35912 ft 497 kts 321°
2026-04-25 14:40 36.10570 28.30376 35926 ft 497 kts 320°
2026-04-25 14:41 36.16079 28.25176 35918 ft 497 kts 320°
2026-04-25 14:41 36.21545 28.20007 35921 ft 497 kts 320°
2026-04-25 14:42 36.25234 28.16514 35925 ft 498 kts 320°
2026-04-25 14:42 36.32549 28.09573 35930 ft 498 kts 321°
2026-04-25 14:43 36.37726 28.03908 35927 ft 498 kts 315°
2026-04-25 14:43 36.42786 27.98065 35935 ft 498 kts 315°
2026-04-25 14:44 36.47842 27.92217 35923 ft 498 kts 315°
2026-04-25 14:44 36.52910 27.86346 35935 ft 498 kts 315°
2026-04-25 14:45 36.57939 27.80509 35940 ft 498 kts 315°
2026-04-25 14:45 36.62997 27.74628 35944 ft 499 kts 315°
2026-04-25 14:46 36.68056 27.68735 35964 ft 498 kts 316°
2026-04-25 14:46 36.73121 27.62824 35950 ft 499 kts 316°
2026-04-25 14:47 36.76479 27.58898 35955 ft 498 kts 316°
2026-04-25 14:47 36.83197 27.51030 35962 ft 499 kts 316°
2026-04-25 14:48 36.88238 27.45114 35968 ft 498 kts 316°
2026-04-25 14:48 36.93294 27.39169 35963 ft 498 kts 316°
2026-04-25 14:49 36.98342 27.33221 35959 ft 497 kts 316°
2026-04-25 14:49 37.03361 27.27296 35978 ft 498 kts 316°
2026-04-25 14:50 37.08391 27.21347 35972 ft 498 kts 316°
2026-04-25 14:50 37.13399 27.15414 35994 ft 497 kts 316°
2026-04-25 14:51 37.18402 27.09474 35981 ft 497 kts 316°
2026-04-25 14:51 37.23417 27.03508 35985 ft 497 kts 316°
2026-04-25 14:52 37.28433 26.97530 35977 ft 497 kts 316°
2026-04-25 14:52 37.31769 26.93547 35984 ft 498 kts 316°
2026-04-25 14:53 37.38423 26.85589 35986 ft 498 kts 316°
2026-04-25 14:53 37.43553 26.79748 35979 ft 496 kts 320°
2026-04-25 14:54 37.48788 26.74157 35980 ft 497 kts 320°
2026-04-25 14:54 37.54032 26.68521 35980 ft 497 kts 320°
2026-04-25 14:55 37.59257 26.62879 35977 ft 495 kts 320°
2026-04-25 14:55 37.64498 26.57200 35983 ft 496 kts 320°
2026-04-25 14:56 37.69681 26.51569 35995 ft 494 kts 320°
2026-04-25 14:56 37.74898 26.45904 35989 ft 495 kts 320°
2026-04-25 14:57 37.80121 26.40220 35998 ft 495 kts 320°
2026-04-25 14:57 37.85342 26.34525 36010 ft 494 kts 320°
2026-04-25 14:58 37.90530 26.28846 35996 ft 493 kts 320°
2026-04-25 14:58 37.95714 26.23151 36011 ft 493 kts 320°
2026-04-25 14:59 38.00848 26.17501 36010 ft 493 kts 320°
2026-04-25 14:59 38.06035 26.11781 36014 ft 494 kts 320°
2026-04-25 15:00 38.11205 26.06068 36020 ft 494 kts 320°
2026-04-25 15:00 38.16384 26.00333 36019 ft 493 kts 320°
2026-04-25 15:01 38.21552 25.94599 36015 ft 492 kts 320°
2026-04-25 15:01 38.26902 25.89317 36013 ft 490 kts 330°
2026-04-25 15:02 38.32793 25.84935 36022 ft 489 kts 331°
2026-04-25 15:02 38.38691 25.80580 36020 ft 492 kts 332°
2026-04-25 15:03 38.44587 25.76215 36011 ft 492 kts 332°
2026-04-25 15:03 38.50485 25.71837 36024 ft 492 kts 332°
2026-04-25 15:04 38.56405 25.67434 36018 ft 491 kts 332°
2026-04-25 15:04 38.62304 25.63038 36015 ft 490 kts 332°
2026-04-25 15:05 38.68160 25.58665 36017 ft 491 kts 332°
2026-04-25 15:06 38.77029 25.52026 36023 ft 490 kts 332°
2026-04-25 15:06 38.82906 25.47615 36021 ft 489 kts 333°
2026-04-25 15:07 38.88727 25.43238 36018 ft 488 kts 333°
2026-04-25 15:07 38.94557 25.38847 36019 ft 487 kts 333°
2026-04-25 15:08 39.00409 25.34430 36020 ft 486 kts 333°
2026-04-25 15:08 39.06224 25.30033 36013 ft 486 kts 333°
2026-04-25 15:09 39.12040 25.25627 36021 ft 486 kts 333°
2026-04-25 15:09 39.20759 25.19004 36024 ft 485 kts 333°
2026-04-25 15:10 39.26543 25.14600 36027 ft 484 kts 333°
2026-04-25 15:11 39.35229 25.07971 36030 ft 482 kts 333°
2026-04-25 15:11 39.40974 25.03576 36033 ft 482 kts 333°
2026-04-25 15:12 39.49629 24.96939 36036 ft 482 kts 333°
2026-04-25 15:12 39.53452 24.94000 36036 ft 481 kts 333°
2026-04-25 15:13 39.63962 24.85903 36036 ft 480 kts 333°
2026-04-25 15:14 39.69692 24.81477 36035 ft 479 kts 333°
2026-04-25 15:14 39.75404 24.77055 36032 ft 479 kts 333°
2026-04-25 15:15 39.81114 24.72627 36036 ft 479 kts 333°
2026-04-25 15:15 39.86828 24.68187 36036 ft 479 kts 333°
2026-04-25 15:16 39.92529 24.63748 36031 ft 478 kts 333°
2026-04-25 15:16 40.01075 24.57077 36034 ft 477 kts 333°
2026-04-25 15:17 40.09602 24.50403 36031 ft 477 kts 333°
2026-04-25 15:18 40.15310 24.45923 36035 ft 477 kts 333°
2026-04-25 15:18 40.23790 24.39253 36033 ft 476 kts 333°
2026-04-25 15:19 40.27568 24.36274 36025 ft 475 kts 333°
2026-04-25 15:19 40.35146 24.30287 36022 ft 476 kts 332°
2026-04-25 15:20 40.40767 24.25837 36023 ft 475 kts 332°
2026-04-25 15:20 40.46412 24.21358 36008 ft 474 kts 332°
2026-04-25 15:21 40.52051 24.16876 36001 ft 474 kts 332°
2026-04-25 15:21 40.57688 24.12386 36002 ft 474 kts 332°
2026-04-25 15:22 40.63316 24.07895 36001 ft 473 kts 332°
2026-04-25 15:22 40.68926 24.03409 36001 ft 473 kts 332°
2026-04-25 15:23 40.74517 23.98929 36000 ft 473 kts 332°
2026-04-25 15:23 40.80122 23.94428 35999 ft 472 kts 332°
2026-04-25 15:24 40.85719 23.89926 35998 ft 471 kts 332°
2026-04-25 15:24 40.89442 23.86925 36000 ft 472 kts 332°
2026-04-25 15:25 40.96880 23.80920 35995 ft 472 kts 332°
2026-04-25 15:25 41.02456 23.76407 35992 ft 470 kts 332°
2026-04-25 15:26 41.08025 23.71891 36207 ft 470 kts 332°
2026-04-25 15:26 41.10801 23.69636 36016 ft 468 kts 332°
2026-04-25 15:26 41.13577 23.67378 36025 ft 466 kts 332°
2026-04-25 15:27 41.19112 23.62872 36032 ft 468 kts 332°
2026-04-25 15:28 41.27441 23.56074 36040 ft 468 kts 332°
2026-04-25 15:28 41.32948 23.51568 36041 ft 466 kts 332°
2026-04-25 15:29 41.38476 23.47034 36033 ft 466 kts 332°
2026-04-25 15:29 41.44065 23.42844 36029 ft 462 kts 338°
2026-04-25 15:30 41.49896 23.39156 36017 ft 463 kts 338°
2026-04-25 15:30 41.55693 23.35437 36025 ft 462 kts 338°
2026-04-25 15:31 41.61486 23.31683 36030 ft 463 kts 337°
2026-04-25 15:31 41.67269 23.27909 36035 ft 462 kts 336°
2026-04-25 15:32 41.73007 23.24151 36035 ft 462 kts 336°
2026-04-25 15:32 41.78771 23.20362 36041 ft 463 kts 336°
2026-04-25 15:33 41.87413 23.14664 36044 ft 462 kts 336°
2026-04-25 15:33 41.93140 23.10877 36045 ft 461 kts 336°
2026-04-25 15:34 41.98915 23.07050 36040 ft 461 kts 336°
2026-04-25 15:34 42.02732 23.04516 36038 ft 461 kts 336°
2026-04-25 15:35 42.13276 22.97499 36043 ft 460 kts 336°
2026-04-25 15:36 42.21847 22.91776 36043 ft 460 kts 336°
2026-04-25 15:36 42.27569 22.87945 36042 ft 460 kts 336°
2026-04-25 15:37 42.33314 22.84091 36044 ft 460 kts 336°
2026-04-25 15:37 42.39034 22.80247 36043 ft 459 kts 335°
2026-04-25 15:38 42.44742 22.76402 36042 ft 459 kts 335°
2026-04-25 15:38 42.50446 22.72552 36043 ft 459 kts 335°
2026-04-25 15:39 42.56130 22.68708 36047 ft 459 kts 335°
2026-04-25 15:39 42.61843 22.64835 36049 ft 459 kts 335°
2026-04-25 15:40 42.65637 22.62260 36053 ft 459 kts 335°
2026-04-25 15:40 42.73231 22.57094 36052 ft 458 kts 335°
2026-04-25 15:41 42.78944 22.53197 36050 ft 459 kts 335°
2026-04-25 15:41 42.84565 22.49176 36049 ft 459 kts 328°
2026-04-25 15:42 42.89673 22.43885 36051 ft 461 kts 323°
2026-04-25 15:42 42.94739 22.38406 36410 ft 467 kts 323°
2026-04-25 15:43 42.97253 22.35683 37115 ft 461 kts 323°
2026-04-25 15:43 42.99736 22.32990 37761 ft 456 kts 323°
2026-04-25 15:43 43.02214 22.30300 38047 ft 457 kts 323°
2026-04-25 15:43 43.04702 22.27598 38044 ft 458 kts 323°
2026-04-25 15:44 43.09664 22.22199 38038 ft 457 kts 323°
2026-04-25 15:44 43.14654 22.16760 38043 ft 457 kts 322°
2026-04-25 15:45 43.19633 22.11321 38039 ft 456 kts 322°
2026-04-25 15:45 43.22915 22.07728 38036 ft 457 kts 322°
2026-04-25 15:46 43.29499 22.00507 38037 ft 455 kts 322°
2026-04-25 15:46 43.34432 21.95084 38043 ft 455 kts 322°
2026-04-25 15:47 43.39352 21.89662 38037 ft 454 kts 322°
2026-04-25 15:47 43.44270 21.84232 38035 ft 455 kts 322°
2026-04-25 15:48 43.49182 21.78795 38028 ft 455 kts 322°
2026-04-25 15:48 43.54109 21.73332 38032 ft 454 kts 322°
2026-04-25 15:49 43.59003 21.67892 38033 ft 453 kts 322°
2026-04-25 15:49 43.63892 21.62448 38034 ft 453 kts 322°
2026-04-25 15:50 43.68761 21.57012 38036 ft 452 kts 322°
2026-04-25 15:50 43.73648 21.51546 38031 ft 452 kts 322°
2026-04-25 15:51 43.76891 21.47912 38030 ft 453 kts 322°
2026-04-25 15:51 43.83404 21.40598 38026 ft 451 kts 322°
2026-04-25 15:52 43.88242 21.35150 38021 ft 452 kts 321°
2026-04-25 15:52 43.93119 21.29647 38025 ft 451 kts 321°
2026-04-25 15:53 43.97986 21.24144 38016 ft 451 kts 321°
2026-04-25 15:53 44.02829 21.18655 38018 ft 451 kts 321°
2026-04-25 15:54 44.07682 21.13143 38026 ft 452 kts 321°
2026-04-25 15:54 44.12540 21.07614 38034 ft 451 kts 321°
2026-04-25 15:55 44.17377 21.02097 38033 ft 450 kts 320°
2026-04-25 15:55 44.22197 20.96586 38027 ft 449 kts 320°
2026-04-25 15:56 44.27015 20.91066 38022 ft 449 kts 320°
2026-04-25 15:56 44.31817 20.85552 38027 ft 449 kts 320°
2026-04-25 15:57 44.36634 20.80009 38020 ft 448 kts 320°
2026-04-25 15:57 44.41412 20.74499 38023 ft 449 kts 320°
2026-04-25 15:58 44.46198 20.68967 38021 ft 447 kts 320°
2026-04-25 15:58 44.50996 20.63409 38015 ft 447 kts 320°
2026-04-25 15:59 44.55774 20.57863 38018 ft 448 kts 320°
2026-04-25 15:59 44.60574 20.52277 38016 ft 447 kts 320°
2026-04-25 16:00 44.63736 20.48593 38010 ft 446 kts 320°
2026-04-25 16:00 44.70078 20.41184 38005 ft 446 kts 320°
2026-04-25 16:01 44.74842 20.35604 38001 ft 446 kts 320°
2026-04-25 16:01 44.79614 20.30002 38005 ft 446 kts 319°
2026-04-25 16:02 44.84347 20.24434 38002 ft 446 kts 319°
2026-04-25 16:02 44.89103 20.18826 38004 ft 446 kts 319°
2026-04-25 16:03 44.93857 20.13209 37999 ft 444 kts 319°
2026-04-25 16:03 44.98585 20.07609 38002 ft 445 kts 319°
2026-04-25 16:04 45.03311 20.01999 37996 ft 445 kts 319°
2026-04-25 16:04 45.08043 19.96370 37996 ft 445 kts 319°
2026-04-25 16:05 45.12193 19.91423 37998 ft 444 kts 318°
2026-04-25 16:06 45.18393 19.84014 37998 ft 444 kts 318°
2026-04-25 16:06 45.23110 19.78362 37997 ft 443 kts 318°
2026-04-25 16:07 45.27784 19.72750 37996 ft 443 kts 318°
2026-04-25 16:07 45.32491 19.67083 37995 ft 443 kts 318°
2026-04-25 16:08 45.37185 19.61421 37994 ft 443 kts 318°
2026-04-25 16:08 45.41875 19.55751 37994 ft 444 kts 318°
2026-04-25 16:09 45.46173 19.50544 37994 ft 443 kts 318°
2026-04-25 16:09 45.48005 19.48321 37993 ft 442 kts 318°
2026-04-25 16:10 45.52656 19.42668 37991 ft 443 kts 318°
2026-04-25 16:10 45.57334 19.36970 37988 ft 442 kts 317°
2026-04-25 16:11 45.61984 19.31293 37997 ft 443 kts 317°
2026-04-25 16:11 45.66646 19.25589 37998 ft 442 kts 317°
2026-04-25 16:12 45.71299 19.19883 37998 ft 442 kts 317°
2026-04-25 16:12 45.75814 19.14333 37996 ft 441 kts 317°
2026-04-25 16:13 45.80456 19.08614 37992 ft 441 kts 317°
2026-04-25 16:13 45.85100 19.02880 37981 ft 441 kts 316°
2026-04-25 16:14 45.89741 18.97136 37978 ft 441 kts 317°
2026-04-25 16:14 45.94374 18.91377 37976 ft 440 kts 316°
2026-04-25 16:15 45.98927 18.85556 37973 ft 439 kts 316°
2026-04-25 16:15 46.03493 18.79703 37974 ft 441 kts 316°
2026-04-25 16:16 46.08055 18.73848 37970 ft 439 kts 316°
2026-04-25 16:16 46.12644 18.67946 37976 ft 440 kts 315°
2026-04-25 16:17 46.17179 18.62100 37976 ft 441 kts 316°
2026-04-25 16:17 46.21741 18.56208 37978 ft 440 kts 315°
2026-04-25 16:18 46.26282 18.50328 37978 ft 441 kts 315°
2026-04-25 16:18 46.30848 18.44403 37978 ft 442 kts 315°
2026-04-25 16:19 46.35382 18.38507 37979 ft 442 kts 315°
2026-04-25 16:19 46.39957 18.32542 37988 ft 440 kts 315°
2026-04-25 16:20 46.46783 18.23617 37993 ft 441 kts 315°
2026-04-25 16:21 46.53593 18.14682 37990 ft 440 kts 314°
2026-04-25 16:21 46.58131 18.08710 37989 ft 441 kts 314°
2026-04-25 16:22 46.62633 18.02771 37981 ft 441 kts 315°
2026-04-25 16:22 46.67171 17.96771 37973 ft 440 kts 315°
2026-04-25 16:23 46.71687 17.90786 37966 ft 441 kts 314°
2026-04-25 16:23 46.76225 17.84758 37963 ft 441 kts 314°
2026-04-25 16:24 46.80746 17.78737 37960 ft 441 kts 314°
2026-04-25 16:24 46.85269 17.72700 37960 ft 441 kts 314°
2026-04-25 16:25 46.89787 17.66654 37963 ft 442 kts 314°
2026-04-25 16:25 46.94295 17.60609 37961 ft 441 kts 314°
2026-04-25 16:26 46.98817 17.54529 37960 ft 441 kts 314°
2026-04-25 16:26 47.03335 17.48441 37956 ft 441 kts 314°
2026-04-25 16:27 47.07819 17.42384 37959 ft 441 kts 314°
2026-04-25 16:27 47.12348 17.36250 37959 ft 441 kts 314°
2026-04-25 16:28 47.16878 17.30102 37965 ft 441 kts 314°
2026-04-25 16:28 47.21394 17.23956 37965 ft 444 kts 314°
2026-04-25 16:29 47.25925 17.17775 37962 ft 444 kts 314°
2026-04-25 16:29 47.30431 17.11614 37965 ft 444 kts 313°
2026-04-25 16:30 47.34951 17.05419 37962 ft 443 kts 313°
2026-04-25 16:30 47.39448 16.99238 37962 ft 443 kts 313°
2026-04-25 16:31 47.43962 16.93021 37961 ft 444 kts 314°
2026-04-25 16:31 47.48457 16.86813 37963 ft 444 kts 313°
2026-04-25 16:32 47.52972 16.80563 37960 ft 443 kts 314°
2026-04-25 16:32 47.57500 16.74293 37959 ft 444 kts 315°
2026-04-25 16:33 47.62321 16.68542 37967 ft 446 kts 318°
2026-04-25 16:33 47.67173 16.62826 37970 ft 447 kts 318°
2026-04-25 16:34 47.72008 16.57081 37968 ft 447 kts 317°
2026-04-25 16:34 47.76812 16.51341 37974 ft 445 kts 317°
2026-04-25 16:35 47.81641 16.45546 37979 ft 447 kts 317°
2026-04-25 16:35 47.86444 16.39764 37976 ft 447 kts 317°
2026-04-25 16:36 47.91264 16.33943 37984 ft 446 kts 317°
2026-04-25 16:36 47.96091 16.28099 37987 ft 446 kts 317°
2026-04-25 16:37 48.00950 16.22199 37988 ft 447 kts 317°
2026-04-25 16:37 48.05762 16.16344 37995 ft 446 kts 317°
2026-04-25 16:38 48.10564 16.10484 38002 ft 448 kts 317°
2026-04-25 16:38 48.15365 16.04612 37997 ft 447 kts 317°
2026-04-25 16:39 48.20170 15.98719 37994 ft 448 kts 317°
2026-04-25 16:39 48.24979 15.92808 37984 ft 448 kts 317°
2026-04-25 16:40 48.29756 15.86921 37986 ft 448 kts 317°
2026-04-25 16:40 48.34555 15.80992 37987 ft 447 kts 317°
2026-04-25 16:41 48.39358 15.75042 37876 ft 447 kts 317°
2026-04-25 16:41 48.46553 15.66102 37996 ft 449 kts 317°
2026-04-25 16:42 48.51349 15.60124 37996 ft 448 kts 318°
2026-04-25 16:42 48.56193 15.54071 38001 ft 447 kts 317°
2026-04-25 16:43 48.60995 15.48054 38003 ft 448 kts 317°
2026-04-25 16:43 48.65788 15.42033 38003 ft 449 kts 318°
2026-04-25 16:44 48.70570 15.36012 38002 ft 447 kts 318°
2026-04-25 16:44 48.75367 15.29955 38007 ft 447 kts 317°
2026-04-25 16:45 48.80154 15.23896 38003 ft 448 kts 317°
2026-04-25 16:45 48.84900 15.17874 38000 ft 447 kts 317°
2026-04-25 16:46 48.89657 15.11821 37997 ft 448 kts 317°
2026-04-25 16:46 48.92791 15.07699 37997 ft 447 kts 316°
2026-04-25 16:47 48.98985 14.99376 37993 ft 447 kts 316°
2026-04-25 16:47 49.03646 14.93105 37993 ft 446 kts 316°
2026-04-25 16:48 49.08292 14.86842 37992 ft 446 kts 316°
2026-04-25 16:48 49.12967 14.80529 37991 ft 446 kts 316°
2026-04-25 16:49 49.17616 14.74235 37995 ft 448 kts 316°
2026-04-25 16:49 49.22269 14.67921 37998 ft 446 kts 316°
2026-04-25 16:50 49.26936 14.61570 37998 ft 445 kts 316°
2026-04-25 16:50 49.31553 14.55272 37999 ft 445 kts 316°
2026-04-25 16:51 49.36164 14.48966 38002 ft 446 kts 317°
2026-04-25 16:51 49.39278 14.44697 37999 ft 446 kts 317°
2026-04-25 16:52 49.45417 14.36260 38005 ft 446 kts 317°
2026-04-25 16:52 49.50035 14.29893 38010 ft 445 kts 316°
2026-04-25 16:53 49.56899 14.20399 38006 ft 445 kts 316°
2026-04-25 16:54 49.61481 14.14040 38009 ft 444 kts 316°
2026-04-25 16:54 49.66078 14.07645 38011 ft 444 kts 316°
2026-04-25 16:55 49.70646 14.01272 38011 ft 443 kts 316°
2026-04-25 16:55 49.75194 13.94911 38009 ft 442 kts 316°
2026-04-25 16:56 49.79763 13.88502 38011 ft 443 kts 316°
2026-04-25 16:56 49.84293 13.82133 38007 ft 441 kts 316°
2026-04-25 16:57 49.88830 13.75736 38008 ft 442 kts 316°
2026-04-25 16:57 49.93361 13.69331 38008 ft 442 kts 316°
2026-04-25 16:58 49.97905 13.62890 38012 ft 441 kts 316°
2026-04-25 16:58 50.02413 13.56483 38010 ft 441 kts 316°
2026-04-25 16:59 50.06908 13.50079 38004 ft 440 kts 316°
2026-04-25 16:59 50.11440 13.43603 38015 ft 441 kts 316°
2026-04-25 17:00 50.15186 13.38238 38016 ft 442 kts 316°
2026-04-25 17:00 50.20475 13.30641 38018 ft 440 kts 316°
2026-04-25 17:01 50.24942 13.24207 38025 ft 440 kts 316°
2026-04-25 17:01 50.29447 13.17700 38029 ft 439 kts 316°
2026-04-25 17:02 50.33920 13.11223 38032 ft 439 kts 316°
2026-04-25 17:02 50.38374 13.04757 38033 ft 438 kts 316°
2026-04-25 17:03 50.42819 12.98285 38036 ft 439 kts 316°
2026-04-25 17:03 50.47276 12.91778 38027 ft 439 kts 316°
2026-04-25 17:04 50.51925 12.85578 38026 ft 440 kts 320°
2026-04-25 17:04 50.56670 12.79538 38023 ft 439 kts 320°
2026-04-25 17:05 50.61394 12.73473 38026 ft 439 kts 319°
2026-04-25 17:05 50.68470 12.64325 38022 ft 439 kts 319°
2026-04-25 17:06 50.73193 12.58190 38031 ft 438 kts 319°
2026-04-25 17:06 50.77867 12.52096 38036 ft 437 kts 319°
2026-04-25 17:07 50.82553 12.45971 38032 ft 438 kts 319°
2026-04-25 17:07 50.87233 12.39836 38042 ft 437 kts 319°
2026-04-25 17:08 50.91894 12.33708 38049 ft 438 kts 319°
2026-04-25 17:08 50.96586 12.27522 38047 ft 437 kts 319°
2026-04-25 17:09 51.01267 12.21335 38042 ft 436 kts 319°
2026-04-25 17:09 51.05944 12.15136 38043 ft 435 kts 319°
2026-04-25 17:10 51.10593 12.08957 38037 ft 436 kts 319°
2026-04-25 17:10 51.15244 12.02759 38049 ft 436 kts 319°
2026-04-25 17:11 51.19862 11.96588 38050 ft 435 kts 319°
2026-04-25 17:11 51.24451 11.90439 38054 ft 434 kts 319°
2026-04-25 17:12 51.29054 11.84254 38051 ft 435 kts 319°
2026-04-25 17:12 51.33659 11.78050 38052 ft 433 kts 319°
2026-04-25 17:13 51.36741 11.73889 38050 ft 433 kts 319°
2026-04-25 17:13 51.42867 11.65595 38050 ft 434 kts 319°
2026-04-25 17:14 51.47435 11.59390 38044 ft 433 kts 319°
2026-04-25 17:14 51.52040 11.53118 38048 ft 433 kts 319°
2026-04-25 17:15 51.56627 11.46853 38056 ft 432 kts 319°
2026-04-25 17:15 51.61181 11.40617 38043 ft 434 kts 319°
2026-04-25 17:16 51.65743 11.34352 38046 ft 432 kts 319°
2026-04-25 17:16 51.70339 11.28024 38052 ft 432 kts 318°
2026-04-25 17:17 51.74885 11.21746 38050 ft 432 kts 318°
2026-04-25 17:17 51.79442 11.15436 38050 ft 431 kts 319°
2026-04-25 17:18 51.84022 11.09257 38050 ft 431 kts 324°
2026-04-25 17:18 51.89434 11.04973 38041 ft 436 kts 340°
2026-04-25 17:19 51.95417 11.03312 38045 ft 442 kts 349°
2026-04-25 17:19 52.01498 11.02103 38043 ft 440 kts 349°
2026-04-25 17:20 52.07584 11.00847 38042 ft 438 kts 349°
2026-04-25 17:20 52.13615 10.99577 38051 ft 438 kts 348°
2026-04-25 17:21 52.19688 10.98283 38047 ft 438 kts 348°
2026-04-25 17:21 52.25718 10.96987 37779 ft 442 kts 348°
2026-04-25 17:22 52.28770 10.96330 37225 ft 442 kts 348°
2026-04-25 17:22 52.29787 10.96110 37030 ft 441 kts 348°
2026-04-25 17:22 52.34889 10.95008 36204 ft 438 kts 348°
2026-04-25 17:22 52.37931 10.94349 35753 ft 438 kts 348°
2026-04-25 17:23 52.40945 10.93694 35302 ft 437 kts 348°
2026-04-25 17:23 52.43921 10.93048 34711 ft 434 kts 348°
2026-04-25 17:23 52.46947 10.92388 33875 ft 438 kts 348°
2026-04-25 17:23 52.49972 10.91727 33006 ft 443 kts 348°
2026-04-25 17:24 52.53003 10.91064 32138 ft 444 kts 348°
2026-04-25 17:24 52.56044 10.90400 31269 ft 439 kts 348°
2026-04-25 17:24 52.59037 10.89748 30410 ft 431 kts 348°
2026-04-25 17:24 52.61970 10.89361 29556 ft 427 kts 355°
2026-04-25 17:25 52.64934 10.89793 28695 ft 428 kts
2026-04-25 17:25 52.67853 10.90630 27817 ft 425 kts
2026-04-25 17:25 52.70694 10.91517 26952 ft 416 kts
2026-04-25 17:25 52.73518 10.92425 26051 ft 406 kts
2026-04-25 17:26 52.76226 10.93393 25090 ft 402 kts
2026-04-25 17:26 52.78832 10.95075 24135 ft 405 kts 20°
2026-04-25 17:26 52.81208 10.97543 23206 ft 408 kts 30°
2026-04-25 17:26 52.83344 11.00633 22397 ft 414 kts 34°
2026-04-25 17:27 52.85451 11.03886 21471 ft 419 kts 34°
2026-04-25 17:27 52.87590 11.07178 20545 ft 423 kts 34°
2026-04-25 17:27 52.89733 11.10464 19523 ft 420 kts 34°
2026-04-25 17:27 52.90437 11.11547 19224 ft 417 kts 34°
2026-04-25 17:28 52.94075 11.16288 17726 ft 388 kts 20°
2026-04-25 17:28 52.96459 11.18079 16827 ft 369 kts
2026-04-25 17:28 52.98860 11.18989 15993 ft 349 kts 358°
2026-04-25 17:28 53.01189 11.18999 15547 ft 326 kts 346°
2026-04-25 17:29 53.03322 11.18107 15147 ft 311 kts 332°
2026-04-25 17:29 53.05131 11.16309 14755 ft 298 kts 317°
2026-04-25 17:29 53.06432 11.13715 14365 ft 290 kts 300°
2026-04-25 17:29 53.07192 11.10666 14001 ft 285 kts 292°
2026-04-25 17:30 53.07765 11.07534 13421 ft 294 kts 289°
2026-04-25 17:30 53.08337 11.04206 13137 ft 295 kts 289°
2026-04-25 17:30 53.08884 11.00988 12959 ft 283 kts 289°
2026-04-25 17:30 53.09408 10.97893 12799 ft 271 kts 289°
2026-04-25 17:31 53.09906 10.94949 12644 ft 261 kts 289°
2026-04-25 17:31 53.10384 10.92122 12502 ft 250 kts 289°
2026-04-25 17:31 53.10851 10.89353 12360 ft 244 kts 290°
2026-04-25 17:31 53.11314 10.86620 12222 ft 245 kts 290°
2026-04-25 17:32 53.11773 10.83904 12075 ft 244 kts 290°
2026-04-25 17:32 53.12227 10.81213 11642 ft 246 kts 289°
2026-04-25 17:32 53.12688 10.78477 11301 ft 244 kts 289°
2026-04-25 17:32 53.13141 10.75779 10999 ft 241 kts 290°
2026-04-25 17:33 53.13589 10.73109 10671 ft 238 kts 290°
2026-04-25 17:33 53.14029 10.70483 10313 ft 238 kts 289°
2026-04-25 17:33 53.14472 10.67836 9977 ft 236 kts 290°
2026-04-25 17:33 53.14911 10.65209 9650 ft 234 kts 289°
2026-04-25 17:34 53.15342 10.62630 9463 ft 236 kts 289°
2026-04-25 17:34 53.15781 10.59998 9291 ft 236 kts 289°
2026-04-25 17:34 53.16219 10.57366 9156 ft 236 kts 289°
2026-04-25 17:34 53.16656 10.54735 9036 ft 236 kts 290°
2026-04-25 17:35 53.17098 10.52078 8908 ft 236 kts 289°
2026-04-25 17:35 53.17532 10.49456 8781 ft 235 kts 290°
2026-04-25 17:35 53.17966 10.46835 8661 ft 234 kts 290°
2026-04-25 17:35 53.18389 10.44264 8543 ft 225 kts 290°
2026-04-25 17:36 53.18794 10.41809 8267 ft 222 kts 290°
2026-04-25 17:36 53.19204 10.39327 7916 ft 222 kts 290°
2026-04-25 17:36 53.19866 10.37059 7517 ft 220 kts 313°
2026-04-25 17:36 53.21147 10.35675 7167 ft 222 kts 333°
2026-04-25 17:37 53.22580 10.34714 6875 ft 221 kts 334°
2026-04-25 17:37 53.24027 10.33785 6569 ft 220 kts 334°
2026-04-25 17:37 53.25448 10.32864 6264 ft 219 kts 334°
2026-04-25 17:37 53.26853 10.31949 5977 ft 218 kts 334°
2026-04-25 17:38 53.28271 10.31020 5677 ft 217 kts 334°
2026-04-25 17:38 53.28736 10.30716 5594 ft 216 kts 334°
2026-04-25 17:38 53.31069 10.29169 5094 ft 215 kts 334°
2026-04-25 17:38 53.32427 10.28224 4795 ft 214 kts 329°
2026-04-25 17:39 53.33695 10.26925 4489 ft 212 kts 324°
2026-04-25 17:39 53.34854 10.25441 4189 ft 211 kts 318°
2026-04-25 17:39 53.35951 10.23805 4001 ft 207 kts 317°
2026-04-25 17:39 53.37036 10.22176 3989 ft 212 kts 319°
2026-04-25 17:40 53.38251 10.20862 3935 ft 208 kts 329°
2026-04-25 17:40 53.39565 10.19735 3548 ft 212 kts 331°
2026-04-25 17:40 53.40880 10.18621 3262 ft 211 kts 331°
2026-04-25 17:40 53.42168 10.17525 3108 ft 209 kts 330°
2026-04-25 17:41 53.43484 10.16400 3013 ft 211 kts 330°
2026-04-25 17:41 53.44785 10.15287 2937 ft 212 kts 330°
2026-04-25 17:41 53.46099 10.14162 2879 ft 212 kts 330°
2026-04-25 17:41 53.47408 10.13042 2820 ft 209 kts 330°
2026-04-25 17:42 53.48645 10.11984 2785 ft 193 kts 330°
2026-04-25 17:42 53.49816 10.10980 2713 ft 179 kts 330°
2026-04-25 17:42 53.50883 10.10064 2614 ft 168 kts 330°
2026-04-25 17:42 53.51900 10.09191 2439 ft 161 kts 330°
2026-04-25 17:43 53.52848 10.08380 2218 ft 147 kts 329°
2026-04-25 17:43 53.53733 10.07616 2034 ft 139 kts 329°
2026-04-25 17:43 53.54576 10.06894 1845 ft 129 kts 329°
2026-04-25 17:43 53.55344 10.06233 1686 ft 118 kts 328°
2026-04-25 17:44 53.56074 10.05600 1557 ft 121 kts 328°
2026-04-25 17:44 53.56825 10.04956 1405 ft 121 kts 329°
2026-04-25 17:44 53.57587 10.04337 1200 ft 122 kts 329°
2026-04-25 17:44 53.58354 10.03672 1059 ft 123 kts 327°
2026-04-25 17:45 53.59116 10.03003 912 ft 125 kts 329°
2026-04-25 17:45 53.59374 10.02783 869 ft 122 kts 330°
2026-04-25 17:45 53.60645 10.01684 584 ft 124 kts 329°
2026-04-25 17:45 53.61441 10.01016 420 ft 129 kts 326°
2026-04-25 17:46 53.62239 10.00302 259 ft 132 kts 324°
2026-04-25 17:46 53.63047 9.99591 87 ft 130 kts 329°
2026-04-25 17:46 53.63779 9.98958 68 ft 98 kts 333°
2026-04-25 17:46 53.64227 9.98569 68 ft 51 kts 333°
2026-04-25 17:47 53.64492 9.98391 68 ft 35 kts 351°
2026-04-25 17:47 53.64627 9.98389 68 ft 1 kts
2026-04-25 17:47 53.64646 9.98393 68 ft 3 kts 11°
2026-04-25 17:47 53.64679 9.98418 68 ft 7 kts 32°
2026-04-25 17:48 53.64663 9.98530 68 ft 7 kts 151°
2026-04-25 17:48 53.64594 9.98591 68 ft 15 kts 152°
2026-04-25 17:48 53.64483 9.98687 68 ft 19 kts 154°
2026-04-25 17:49 53.64370 9.98785 68 ft 17 kts 152°
2026-04-25 17:49 53.64261 9.98879 68 ft 17 kts 153°
2026-04-25 17:49 53.64153 9.98969 68 ft 17 kts 154°
2026-04-25 17:49 53.64047 9.99057 68 ft 16 kts 153°
2026-04-25 17:50 53.63946 9.99149 68 ft 16 kts 150°
2026-04-25 17:50 53.63848 9.99241 68 ft 16 kts 151°
2026-04-25 17:50 53.63762 9.99359 68 ft 16 kts 128°
2026-04-25 17:50 53.63694 9.99510 68 ft 15 kts 127°
2026-04-25 17:51 53.63628 9.99660 68 ft 16 kts 127°
2026-04-25 17:51 53.63558 9.99820 68 ft 17 kts 126°
2026-04-25 17:51 53.63489 9.99983 68 ft 13 kts 126°
2026-04-25 17:51 53.63469 10.00029 68 ft 0 kts 128°
2026-04-25 17:52 53.63463 10.00041 68 ft 3 kts 127°
2026-04-25 17:52 53.63458 10.00053 68 ft 4 kts 126°
2026-04-25 17:52 53.63407 10.00171 68 ft 9 kts 140°
2026-04-25 17:52 53.63343 10.00200 68 ft 10 kts 176°
2026-04-25 17:53 53.63271 10.00207 68 ft 10 kts 176°
2026-04-25 17:53 53.63195 10.00220 68 ft 11 kts 174°
2026-04-25 17:53 53.63116 10.00228 68 ft 11 kts 177°
2026-04-25 17:53 53.63053 10.00246 68 ft 8 kts 139°
2026-04-25 17:54 53.63030 10.00297 68 ft 5 kts 123°
2026-04-25 17:54 53.63016 10.00333 68 ft 0 kts 122°
2026-04-25 17:54 53.63014 10.00339 68 ft 1 kts 122°
2026-04-25 17:54 53.63013 10.00341 68 ft 0 kts 122°